Teterboro, NJ

2:12 PM EST on November 12, 2019 (GMT -0500)
Teterboro

Weather History for KTEB - September, 2019

Change the Weather History Date:

Saturday, September 7, 2019

  Actual Average Record
Temperature  
Mean Temperature 66 °F -  
Max Temperature 78 °F 78 °F 97 °F (2015)
Min Temperature 55 °F 60 °F 51 °F (2000)
Cooling Degree Days 1    
Growing Degree Days 16 (Base 50)    
Moisture  
Dew Point 53 °F    
Average Humidity 64    
Maximum Humidity 90    
Minimum Humidity 43    
Precipitation  
Precipitation 0.01 in - - ()
Sea Level Pressure  
Sea Level Pressure 29.81 in    
Wind  
Wind Speed 8 mph ()    
Max Wind Speed 13 mph    
Max Gust Speed 20 mph    
Visibility 10.0 miles    
Events      
Averages and records for this station are not official NWS values.
T = Trace of Precipitation, MM = Missing Value Source: Averaged Metar Reports

Daily Weather History Graph

Daily Weather History Graph

Search for Another Location

Airport or City:

Astronomy

Sep. 07, 2019 Rise Set
Actual Time 6:28 AM EDT 7:19 PM EDT
Civil Twilight 6:00 AM EDT 7:46 PM EDT
Nautical Twilight 5:27 AM EDT 8:19 PM EDT
Astronomical Twilight 4:53 AM EDT 8:54 PM EDT
Moon 3:34 PM EDT (9/7) 12:16 AM EDT (9/7)
Length of Visible Light 13h 46m
Length of Day
12h 50m
Waxing Gibbous, 65% of the Moon is Illuminated
Sep 7
Waxing Gibbous
Sep 14
Full
Sep 21
Last Quarter
Sep 28
New
Oct 5
First Quarter

Hourly Weather History & Observations

Time (EDT) Temp. Dew Point Humidity Pressure Visibility Wind Dir Wind Speed Gust Speed Precip Events Conditions
12:51 AM 59.0 °F 54.0 °F 83% 29.76 in 10.0 mi North 10.4 mph - 0.00 in   Overcast
1:51 AM 59.0 °F 54.0 °F 83% 29.75 in 10.0 mi North 10.4 mph - 0.01 in   Overcast
2:51 AM 59.0 °F 54.0 °F 83% 29.74 in 10.0 mi North 10.4 mph 17.3 mph 0.00 in   Overcast
3:51 AM 57.9 °F 53.1 °F 84% 29.74 in 10.0 mi NNW 9.2 mph - N/A   Scattered Clouds
4:51 AM 55.9 °F 53.1 °F 90% 29.75 in 10.0 mi NNW 6.9 mph - N/A   Clear
5:51 AM 55.9 °F 52.0 °F 87% 29.77 in 10.0 mi North 5.8 mph - N/A   Clear
6:51 AM 55.9 °F 51.1 °F 84% 29.80 in 10.0 mi NNW 6.9 mph - N/A   Clear
7:51 AM 59.0 °F 51.1 °F 75% 29.81 in 10.0 mi NNW 6.9 mph - N/A   Clear
8:51 AM 62.1 °F 51.1 °F 67% 29.82 in 10.0 mi NW 9.2 mph - N/A   Clear
9:51 AM 64.9 °F 52.0 °F 63% 29.82 in 10.0 mi NW 10.4 mph - N/A   Clear
10:51 AM 69.1 °F 53.1 °F 57% 29.81 in 10.0 mi WNW 6.9 mph - N/A   Clear
11:51 AM 72.0 °F 52.0 °F 49% 29.81 in 10.0 mi NNW 11.5 mph - N/A   Clear
12:51 PM 75.0 °F 51.1 °F 43% 29.80 in 10.0 mi North 10.4 mph - N/A   Partly Cloudy
1:51 PM 75.9 °F 53.1 °F 45% 29.79 in 10.0 mi NW 9.2 mph 19.6 mph N/A   Mostly Cloudy
2:51 PM 75.9 °F 52.0 °F 43% 29.78 in 10.0 mi NW 10.4 mph - N/A   Mostly Cloudy
3:51 PM 77.0 °F 53.1 °F 43% 29.80 in 10.0 mi NW 9.2 mph - N/A   Mostly Cloudy
4:51 PM 75.0 °F 53.1 °F 46% 29.80 in 10.0 mi West 12.7 mph - N/A   Overcast
5:51 PM 75.0 °F 52.0 °F 44% 29.81 in 10.0 mi WNW 10.4 mph - N/A   Mostly Cloudy
6:51 PM 73.0 °F 52.0 °F 48% 29.84 in 10.0 mi West 8.1 mph - N/A   Mostly Cloudy
7:51 PM 69.1 °F 52.0 °F 54% 29.85 in 10.0 mi West 5.8 mph - N/A   Clear
8:51 PM 68.0 °F 53.1 °F 59% 29.87 in 10.0 mi West 4.6 mph - N/A   Clear
9:51 PM 66.0 °F 53.1 °F 63% 29.89 in 10.0 mi West 4.6 mph - N/A   Clear
10:51 PM 66.0 °F 54.0 °F 65% 29.89 in 10.0 mi WNW 3.5 mph - N/A   Clear
11:51 PM 66.0 °F 55.0 °F 68% 29.90 in 10.0 mi West 5.8 mph - N/A   Overcast